CCA4557 ZGHA-ZGGG

Flight info

Callsign CCA4557
Flight time 1h 3m
Altitude 41100
Route UBM7X UBMOG W615 IDAXI R473 BEMAG/K0902S1220 V5 ENVIP ENVIP8
Aircraft A359/H-SDE2E3GHIJ3J4J5LM1ORWXY/LB1D1

Departure

Time 2026-04-23 09:51
Airport Changsha Huanghua International Airport (ZGHA)

Arrival

Time 2026-04-23 10:55
Airport Guangzhou Baiyun International Airport (ZGGG)
Time Latitude Longitude Altitude Speed Heading
2026-04-23 09:43 28.18887 113.21680 222 ft 20 kts 177°
2026-04-23 09:44 28.18742 113.21688 222 ft 19 kts 177°
2026-04-23 09:44 28.18716 113.21689 228 ft 0 kts 177°
2026-04-23 09:44 28.18714 113.21690 222 ft 2 kts 177°
2026-04-23 09:44 28.18686 113.21697 225 ft 6 kts 155°
2026-04-23 09:45 28.18663 113.21738 220 ft 7 kts 102°
2026-04-23 09:45 28.18641 113.21794 226 ft 8 kts 145°
2026-04-23 09:45 28.18576 113.21810 223 ft 11 kts 176°
2026-04-23 09:45 28.18485 113.21816 225 ft 15 kts 177°
2026-04-23 09:46 28.18435 113.21819 223 ft 16 kts 176°
2026-04-23 09:46 28.18313 113.21827 225 ft 19 kts 177°
2026-04-23 09:46 28.18173 113.21835 228 ft 21 kts 176°
2026-04-23 09:46 28.18014 113.21845 225 ft 24 kts 177°
2026-04-23 09:47 28.17853 113.21855 227 ft 17 kts 177°
2026-04-23 09:47 28.17775 113.21866 222 ft 8 kts 154°
2026-04-23 09:47 28.17745 113.21922 228 ft 6 kts 100°
2026-04-23 09:47 28.17745 113.21924 228 ft 0 kts 97°
2026-04-23 09:49 28.17742 113.21951 229 ft 5 kts 92°
2026-04-23 09:49 28.17748 113.22001 223 ft 8 kts 74°
2026-04-23 09:49 28.17788 113.22042 227 ft 7 kts
2026-04-23 09:50 28.17846 113.22042 226 ft 7 kts 357°
2026-04-23 09:50 28.17848 113.22042 227 ft 0 kts 357°
2026-04-23 09:50 28.17852 113.22042 228 ft 5 kts 357°
2026-04-23 09:51 28.18094 113.22027 223 ft 74 kts 357°
2026-04-23 09:51 28.18859 113.21981 226 ft 144 kts 356°
2026-04-23 09:51 28.20015 113.21913 597 ft 171 kts 358°
2026-04-23 09:51 28.21142 113.21850 1677 ft 156 kts 358°
2026-04-23 09:52 28.22229 113.21784 2421 ft 159 kts 357°
2026-04-23 09:52 28.23361 113.21712 2907 ft 165 kts 357°
2026-04-23 09:52 28.24502 113.21640 3420 ft 172 kts 356°
2026-04-23 09:52 28.25776 113.21559 3675 ft 194 kts 356°
2026-04-23 09:53 28.27179 113.21472 4081 ft 207 kts 356°
2026-04-23 09:53 28.28633 113.21382 4672 ft 210 kts 356°
2026-04-23 09:53 28.30101 113.21297 5299 ft 212 kts 356°
2026-04-23 09:53 28.31582 113.21203 5907 ft 215 kts 356°
2026-04-23 09:54 28.33086 113.21106 6500 ft 217 kts 356°
2026-04-23 09:54 28.34600 113.21010 7083 ft 219 kts 356°
2026-04-23 09:54 28.36125 113.21045 7664 ft 221 kts
2026-04-23 09:54 28.37550 113.21717 8203 ft 228 kts 33°
2026-04-23 09:55 28.38542 113.23155 8731 ft 238 kts 63°
2026-04-23 09:55 28.38872 113.25028 9252 ft 248 kts 82°
2026-04-23 09:55 28.38951 113.26999 9889 ft 251 kts 84°
2026-04-23 09:55 28.39013 113.28994 10398 ft 255 kts 84°
2026-04-23 09:56 28.39088 113.31027 10879 ft 261 kts 84°
2026-04-23 09:56 28.39173 113.33077 11391 ft 265 kts 84°
2026-04-23 09:56 28.39266 113.35182 11897 ft 270 kts 84°
2026-04-23 09:56 28.39364 113.37330 12417 ft 274 kts 84°
2026-04-23 09:57 28.39466 113.39509 12926 ft 279 kts 84°
2026-04-23 09:57 28.39539 113.41086 13290 ft 282 kts 84°
2026-04-23 09:57 28.39573 113.41939 13479 ft 284 kts 85°
2026-04-23 09:57 28.39502 113.43585 13810 ft 290 kts 98°
2026-04-23 09:58 28.38835 113.45758 14218 ft 293 kts 122°
2026-04-23 09:58 28.37501 113.47499 14568 ft 296 kts 146°
2026-04-23 09:58 28.35662 113.48545 14776 ft 300 kts 171°
2026-04-23 09:58 28.33591 113.48714 15000 ft 301 kts 193°
2026-04-23 09:59 28.32691 113.48521 15116 ft 303 kts 199°
2026-04-23 09:59 28.30559 113.48096 15367 ft 320 kts 189°
2026-04-23 09:59 28.28277 113.48090 15616 ft 335 kts 183°
2026-04-23 09:59 28.26163 113.48202 15875 ft 345 kts 182°
2026-04-23 10:00 28.25022 113.48270 16013 ft 350 kts 182°
2026-04-23 10:00 28.22550 113.48417 16296 ft 359 kts 182°
2026-04-23 10:00 28.20028 113.48565 16567 ft 368 kts 182°
2026-04-23 10:00 28.17437 113.48765 16823 ft 379 kts 178°
2026-04-23 10:01 28.14841 113.49541 17041 ft 396 kts 161°
2026-04-23 10:01 28.12498 113.51292 17321 ft 412 kts 140°
2026-04-23 10:01 28.10742 113.53892 17644 ft 423 kts 121°
2026-04-23 10:01 28.09464 113.56915 17987 ft 428 kts 116°
2026-04-23 10:02 28.08251 113.60005 18334 ft 431 kts 116°
2026-04-23 10:02 28.07015 113.63104 18647 ft 434 kts 117°
2026-04-23 10:02 28.05507 113.66067 18934 ft 433 kts 130°
2026-04-23 10:02 28.03464 113.68473 19235 ft 427 kts 146°
2026-04-23 10:03 28.00950 113.70201 19544 ft 420 kts 162°
2026-04-23 10:03 27.98193 113.71138 19886 ft 410 kts 176°
2026-04-23 10:03 27.95376 113.71281 20248 ft 400 kts 191°
2026-04-23 10:03 27.92691 113.70682 20666 ft 390 kts 204°
2026-04-23 10:04 27.90159 113.69638 21034 ft 389 kts 205°
2026-04-23 10:04 27.87502 113.68885 21388 ft 398 kts 195°
2026-04-23 10:04 27.84732 113.68537 21731 ft 403 kts 192°
2026-04-23 10:04 27.81932 113.68279 22080 ft 404 kts 192°
2026-04-23 10:05 27.79127 113.68034 22427 ft 405 kts 192°
2026-04-23 10:05 27.76308 113.67786 22768 ft 406 kts 192°
2026-04-23 10:05 27.73486 113.67536 23083 ft 407 kts 192°
2026-04-23 10:05 27.70655 113.67285 23414 ft 408 kts 193°
2026-04-23 10:06 27.67819 113.67034 23699 ft 409 kts 193°
2026-04-23 10:06 27.64979 113.66798 23990 ft 411 kts 192°
2026-04-23 10:06 27.62102 113.66764 24245 ft 416 kts 188°
2026-04-23 10:06 27.59196 113.66834 24505 ft 418 kts 188°
2026-04-23 10:07 27.56278 113.66918 24769 ft 420 kts 188°
2026-04-23 10:07 27.53358 113.67001 25048 ft 421 kts 188°
2026-04-23 10:07 27.51419 113.67055 25220 ft 422 kts 188°
2026-04-23 10:07 27.47472 113.67164 25592 ft 424 kts 188°
2026-04-23 10:08 27.45514 113.67272 25785 ft 429 kts 185°
2026-04-23 10:08 27.42523 113.67664 26033 ft 434 kts 183°
2026-04-23 10:08 27.38524 113.68307 26515 ft 433 kts 182°
2026-04-23 10:09 27.33549 113.69113 26965 ft 436 kts 183°
2026-04-23 10:09 27.30539 113.69596 27259 ft 438 kts 183°
2026-04-23 10:09 27.26531 113.70238 27631 ft 440 kts 183°
2026-04-23 10:09 27.24480 113.70566 27827 ft 440 kts 184°
2026-04-23 10:10 27.21485 113.71050 28109 ft 442 kts 184°
2026-04-23 10:10 27.18397 113.71550 28424 ft 443 kts 184°
2026-04-23 10:10 27.15368 113.72032 28669 ft 446 kts 184°
2026-04-23 10:10 27.12294 113.72518 28971 ft 446 kts 184°
2026-04-23 10:11 27.09222 113.73007 29377 ft 446 kts 184°
2026-04-23 10:11 27.06147 113.73498 29672 ft 447 kts 184°
2026-04-23 10:11 27.03067 113.73987 29956 ft 449 kts 184°
2026-04-23 10:11 26.99969 113.74479 30228 ft 451 kts 184°
2026-04-23 10:12 26.96843 113.74975 30458 ft 453 kts 184°
2026-04-23 10:12 26.93722 113.75471 30660 ft 456 kts 184°
2026-04-23 10:12 26.90562 113.75972 30874 ft 458 kts 184°
2026-04-23 10:12 26.87404 113.76475 31114 ft 461 kts 184°
2026-04-23 10:13 26.84206 113.76983 31268 ft 464 kts 184°
2026-04-23 10:13 26.80994 113.77492 31455 ft 467 kts 184°
2026-04-23 10:13 26.77784 113.78003 31696 ft 469 kts 184°
2026-04-23 10:13 26.74538 113.78595 31891 ft 479 kts 180°
2026-04-23 10:14 26.71274 113.79492 32113 ft 485 kts 178°
2026-04-23 10:14 26.68000 113.80472 32310 ft 489 kts 177°
2026-04-23 10:14 26.64701 113.81500 32500 ft 492 kts 176°
2026-04-23 10:14 26.61396 113.82546 32685 ft 494 kts 176°
2026-04-23 10:15 26.58089 113.83596 32880 ft 497 kts 176°
2026-04-23 10:15 26.54758 113.84651 33003 ft 499 kts 176°
2026-04-23 10:15 26.48147 113.86740 33075 ft 491 kts 176°
2026-04-23 10:16 26.41572 113.88676 33084 ft 487 kts 178°
2026-04-23 10:16 26.34991 113.90534 33078 ft 487 kts 178°
2026-04-23 10:17 26.30417 113.91834 33071 ft 488 kts 178°
2026-04-23 10:17 26.23852 113.93720 33072 ft 488 kts 177°
2026-04-23 10:18 26.17273 113.95617 33065 ft 488 kts 177°
2026-04-23 10:18 26.10707 113.97509 33069 ft 488 kts 177°
2026-04-23 10:19 26.04128 113.99256 33059 ft 478 kts 183°
2026-04-23 10:19 26.00869 113.99563 33066 ft 464 kts 191°
2026-04-23 10:19 25.97696 113.99354 33022 ft 453 kts 197°
2026-04-23 10:20 25.91462 113.98400 33066 ft 452 kts 199°
2026-04-23 10:20 25.85241 113.97268 33067 ft 453 kts 200°
2026-04-23 10:21 25.79046 113.96155 33061 ft 454 kts 199°
2026-04-23 10:21 25.72760 113.95053 33061 ft 454 kts 199°
2026-04-23 10:22 25.66516 113.93977 33058 ft 455 kts 199°
2026-04-23 10:22 25.60292 113.92907 33063 ft 456 kts 199°
2026-04-23 10:23 25.54013 113.91833 33064 ft 456 kts 198°
2026-04-23 10:23 25.47727 113.90755 33054 ft 456 kts 199°
2026-04-23 10:24 25.44587 113.90216 32802 ft 456 kts 198°
2026-04-23 10:24 25.41443 113.89676 32408 ft 456 kts 198°
2026-04-23 10:24 25.38285 113.89128 32046 ft 465 kts 198°
2026-04-23 10:24 25.35066 113.88566 31688 ft 471 kts 198°
2026-04-23 10:25 25.31816 113.88002 31344 ft 473 kts 198°
2026-04-23 10:25 25.28564 113.87447 30988 ft 474 kts 197°
2026-04-23 10:25 25.25346 113.86901 30652 ft 475 kts 197°
2026-04-23 10:25 25.22081 113.86348 30311 ft 475 kts 197°
2026-04-23 10:26 25.18810 113.85792 29966 ft 476 kts 197°
2026-04-23 10:26 25.15537 113.85235 29551 ft 475 kts 197°
2026-04-23 10:26 25.12269 113.84680 29131 ft 475 kts 197°
2026-04-23 10:26 25.09006 113.84127 28732 ft 474 kts 197°
2026-04-23 10:27 25.05754 113.83573 28351 ft 472 kts 197°
2026-04-23 10:27 25.02514 113.83022 27969 ft 470 kts 197°
2026-04-23 10:27 24.99293 113.82474 27645 ft 466 kts 197°
2026-04-23 10:27 24.96092 113.81929 27554 ft 465 kts 197°
2026-04-23 10:28 24.92877 113.81379 27554 ft 470 kts 197°
2026-04-23 10:28 24.89630 113.80820 27558 ft 474 kts 197°
2026-04-23 10:28 24.86355 113.80260 27528 ft 475 kts 196°
2026-04-23 10:28 24.83081 113.79703 27551 ft 476 kts 196°
2026-04-23 10:29 24.79849 113.79155 27556 ft 477 kts 196°
2026-04-23 10:29 24.76532 113.78594 27553 ft 477 kts 196°
2026-04-23 10:29 24.73280 113.78044 27555 ft 478 kts 196°
2026-04-23 10:29 24.70001 113.77490 27552 ft 477 kts 196°
2026-04-23 10:30 24.66710 113.76933 27554 ft 477 kts 196°
2026-04-23 10:30 24.63426 113.76378 27551 ft 477 kts 196°
2026-04-23 10:30 24.60146 113.75823 27550 ft 477 kts 196°
2026-04-23 10:30 24.56866 113.75267 27545 ft 477 kts 195°
2026-04-23 10:31 24.53573 113.74710 27556 ft 478 kts 195°
2026-04-23 10:31 24.50286 113.74158 27546 ft 478 kts 195°
2026-04-23 10:31 24.47003 113.73606 27422 ft 474 kts 196°
2026-04-23 10:31 24.43772 113.73066 27184 ft 467 kts 195°
2026-04-23 10:32 24.40570 113.72530 26948 ft 463 kts 196°
2026-04-23 10:32 24.37387 113.71992 26697 ft 462 kts 195°
2026-04-23 10:32 24.34218 113.71463 26454 ft 460 kts 195°
2026-04-23 10:32 24.31057 113.70933 26219 ft 459 kts 195°
2026-04-23 10:33 24.27901 113.70404 25967 ft 457 kts 195°
2026-04-23 10:33 24.24760 113.69865 25727 ft 456 kts 195°
2026-04-23 10:33 24.21633 113.69330 25491 ft 455 kts 195°
2026-04-23 10:33 24.18502 113.68797 25275 ft 453 kts 195°
2026-04-23 10:34 24.15396 113.68271 25043 ft 452 kts 195°
2026-04-23 10:34 24.12329 113.67759 24816 ft 450 kts 195°
2026-04-23 10:34 24.09235 113.67232 24599 ft 449 kts 195°
2026-04-23 10:34 24.06154 113.66708 24369 ft 447 kts 195°
2026-04-23 10:35 24.03076 113.66186 24147 ft 446 kts 195°
2026-04-23 10:35 24.00004 113.65664 23909 ft 445 kts 194°
2026-04-23 10:35 23.96953 113.65148 23694 ft 446 kts 194°
2026-04-23 10:35 23.93880 113.64630 23471 ft 445 kts 194°
2026-04-23 10:36 23.90832 113.64117 23205 ft 443 kts 194°
2026-04-23 10:36 23.87793 113.63604 22949 ft 442 kts 194°
2026-04-23 10:36 23.84745 113.63090 22688 ft 441 kts 194°
2026-04-23 10:36 23.81747 113.62514 22423 ft 436 kts 198°
2026-04-23 10:37 23.78884 113.61499 22181 ft 429 kts 208°
2026-04-23 10:37 23.76277 113.59994 21943 ft 423 kts 215°
2026-04-23 10:37 23.73802 113.58316 21670 ft 421 kts 216°
2026-04-23 10:37 23.71302 113.56597 21420 ft 429 kts 215°
2026-04-23 10:38 23.68749 113.54847 21068 ft 433 kts 215°
2026-04-23 10:38 23.66209 113.53116 20645 ft 432 kts 215°
2026-04-23 10:38 23.63658 113.51381 20207 ft 430 kts 215°
2026-04-23 10:38 23.61260 113.49486 19789 ft 424 kts 224°
2026-04-23 10:39 23.59337 113.47090 19369 ft 417 kts 238°
2026-04-23 10:39 23.58035 113.44301 18974 ft 413 kts 249°
2026-04-23 10:39 23.57067 113.41358 18563 ft 409 kts 251°
2026-04-23 10:39 23.56157 113.38464 18162 ft 403 kts 251°
2026-04-23 10:40 23.55261 113.35629 17755 ft 401 kts 251°
2026-04-23 10:40 23.54347 113.32765 17617 ft 397 kts 251°
2026-04-23 10:40 23.53438 113.29930 17610 ft 397 kts 251°
2026-04-23 10:40 23.52521 113.27090 17612 ft 397 kts 250°
2026-04-23 10:41 23.51357 113.24369 17609 ft 398 kts 239°
2026-04-23 10:41 23.49585 113.22042 17435 ft 398 kts 225°
2026-04-23 10:41 23.47315 113.20375 16550 ft 392 kts 208°
2026-04-23 10:41 23.46457 113.20005 16261 ft 388 kts 202°
2026-04-23 10:42 23.36644 113.17877 13868 ft 373 kts 195°
2026-04-23 10:42 23.34148 113.17362 13705 ft 356 kts 195°
2026-04-23 10:43 23.31770 113.16868 13569 ft 340 kts 195°
2026-04-23 10:43 23.29496 113.16393 13433 ft 325 kts 195°
2026-04-23 10:43 23.27348 113.15944 13116 ft 306 kts 196°
2026-04-23 10:43 23.25310 113.15518 12734 ft 289 kts 196°
2026-04-23 10:44 23.24026 113.15249 12491 ft 278 kts 196°
2026-04-23 10:44 23.22181 113.14861 12127 ft 263 kts 196°
2026-04-23 10:44 23.20437 113.14495 11819 ft 249 kts 197°
2026-04-23 10:44 23.18763 113.14133 11351 ft 241 kts 198°
2026-04-23 10:45 23.17151 113.13696 10831 ft 239 kts 200°
2026-04-23 10:45 23.15538 113.13236 10245 ft 239 kts 200°
2026-04-23 10:45 23.13925 113.12785 9654 ft 239 kts 199°
2026-04-23 10:45 23.12315 113.12350 9022 ft 239 kts 199°
2026-04-23 10:46 23.10707 113.11912 8417 ft 238 kts 199°
2026-04-23 10:46 23.09094 113.11505 7813 ft 240 kts 194°
2026-04-23 10:46 23.07344 113.11477 7222 ft 263 kts 176°
2026-04-23 10:46 23.05652 113.12246 6632 ft 270 kts 146°
2026-04-23 10:47 23.04583 113.13902 6151 ft 272 kts 110°
2026-04-23 10:47 23.04277 113.15891 5939 ft 262 kts 98°
2026-04-23 10:47 23.04143 113.17813 5901 ft 250 kts 94°
2026-04-23 10:47 23.04321 113.19674 5914 ft 250 kts 75°
2026-04-23 10:48 23.05107 113.21338 5917 ft 248 kts 49°
2026-04-23 10:48 23.06444 113.22479 5913 ft 243 kts 20°
2026-04-23 10:48 23.08026 113.23034 5711 ft 237 kts
2026-04-23 10:48 23.09626 113.23454 5389 ft 236 kts
2026-04-23 10:49 23.11218 113.23863 5084 ft 235 kts
2026-04-23 10:49 23.12807 113.24276 4798 ft 234 kts
2026-04-23 10:49 23.14361 113.24683 4529 ft 232 kts
2026-04-23 10:49 23.15946 113.25097 4212 ft 230 kts 11°
2026-04-23 10:50 23.17935 113.25653 3804 ft 216 kts 11°
2026-04-23 10:50 23.18901 113.25913 3621 ft 209 kts 11°
2026-04-23 10:50 23.20270 113.26279 3367 ft 202 kts 11°
2026-04-23 10:50 23.21610 113.26641 3141 ft 192 kts 12°
2026-04-23 10:51 23.22857 113.26977 2900 ft 179 kts 13°
2026-04-23 10:51 23.24028 113.27293 2662 ft 168 kts 12°
2026-04-23 10:51 23.25148 113.27592 2468 ft 162 kts 14°
2026-04-23 10:51 23.26232 113.27884 2229 ft 157 kts 15°
2026-04-23 10:52 23.27259 113.28161 2024 ft 149 kts 15°
2026-04-23 10:52 23.28229 113.28423 1826 ft 137 kts 16°
2026-04-23 10:52 23.29130 113.28667 1662 ft 132 kts 16°
2026-04-23 10:52 23.29998 113.28902 1481 ft 124 kts 14°
2026-04-23 10:53 23.30813 113.29118 1326 ft 120 kts 15°
2026-04-23 10:53 23.31629 113.29338 1165 ft 121 kts 15°
2026-04-23 10:53 23.32449 113.29560 1001 ft 123 kts 14°
2026-04-23 10:53 23.33281 113.29783 814 ft 123 kts 13°
2026-04-23 10:54 23.34110 113.30006 663 ft 124 kts 13°
2026-04-23 10:54 23.34957 113.30235 479 ft 127 kts 13°
2026-04-23 10:54 23.35835 113.30465 320 ft 132 kts 11°
2026-04-23 10:54 23.36707 113.30699 147 ft 127 kts 13°
2026-04-23 10:55 23.37559 113.30933 62 ft 120 kts 13°
2026-04-23 10:55 23.38189 113.31102 56 ft 65 kts 14°
2026-04-23 10:55 23.38451 113.31173 57 ft 25 kts 14°
2026-04-23 10:55 23.38611 113.31206 59 ft 22 kts
2026-04-23 10:56 23.38733 113.31188 57 ft 4 kts 346°
2026-04-23 10:56 23.38741 113.31186 60 ft 5 kts 347°
2026-04-23 10:56 23.38805 113.31169 55 ft 12 kts 346°
2026-04-23 10:56 23.38892 113.31145 60 ft 14 kts 346°
2026-04-23 10:57 23.38997 113.31125 57 ft 16 kts
2026-04-23 10:57 23.39079 113.31136 59 ft 9 kts 345°
2026-04-23 10:57 23.39115 113.31087 62 ft 4 kts 291°
2026-04-23 10:57 23.39115 113.31086 62 ft 0 kts 291°
2026-04-23 10:58 23.39121 113.31067 59 ft 7 kts 288°
2026-04-23 10:59 23.39137 113.31003 57 ft 10 kts 284°
2026-04-23 10:59 23.39156 113.30920 62 ft 13 kts 284°
2026-04-23 10:59 23.39180 113.30817 56 ft 8 kts 284°
2026-04-23 10:59 23.39214 113.30787 56 ft 7 kts 348°
2026-04-23 11:00 23.39277 113.30795 55 ft 11 kts 14°
2026-04-23 11:00 23.39361 113.30817 60 ft 14 kts 14°
2026-04-23 11:00 23.39454 113.30841 60 ft 9 kts
2026-04-23 11:00 23.39496 113.30798 57 ft 10 kts 292°
2026-04-23 11:01 23.39515 113.30722 60 ft 11 kts 284°
2026-04-23 11:01 23.39573 113.30675 58 ft 12 kts
2026-04-23 11:01 23.39665 113.30699 57 ft 13 kts 13°
2026-04-23 11:01 23.39727 113.30715 57 ft 3 kts 13°
2026-04-23 11:02 23.39758 113.30723 61 ft 7 kts 13°
2026-04-23 11:02 23.39815 113.30738 60 ft 10 kts
2026-04-23 11:02 23.39870 113.30697 57 ft 11 kts 292°
2026-04-23 11:02 23.39881 113.30634 65 ft 8 kts 277°
2026-04-23 11:03 23.39857 113.30583 62 ft 6 kts 227°
2026-04-23 11:03 23.39823 113.30556 56 ft 5 kts 214°
2026-04-23 11:03 23.39790 113.30533 59 ft 6 kts 213°
2026-04-23 11:03 23.39788 113.30531 59 ft 1 kts 213°